CZ-6A DEB

Satellite information

Favourite Embed

Satellite Type and Status

DEBRISIN ORBIT

Key statistics

Satellite CZ-6A DEB at a glance.

Uptime

910

Days in orbit

Revolutions

≈ 14.0

Per day

Orbit

SSO

Sun Synchronous Orbit

Inclination

99.0

Latest

Satellite identification and parameters

Extended collection of information and parameters for CZ-6A DEB.

Object identification

Identified? True

Debris? True

Object name: CZ-6A DEB

International designator: 2022-151FF

Object number (NORAD): 54431

Object ID (CCSDS): 54431

Country: PEOPLES REPUBLIC OF CHINA (PRC)

Current information (Y/N): Y

RCS size: SMALL

Orbital parameters

Period: 102.685 minutes

Inclination: 98.9709 deg

SMA: 7263.836 km

Apoapsis: 972.106 km

Periapsis: 799.296 km

RAAN: 132.9772 deg

Eccentricy: 0.0118952

Argument of periapsis: 41.5034 deg

Mean anomaly: 319.509 deg

Mean motion: 14.02341289 rev/day

Mean motion (dot): 0.00001671 rev/day2

B* drag term: 0.00105 1/REarth

Two-line elements (TLE)

Creation date: May 8, 2025, 3:01 a.m.

Reference frame: TEME

Reference center: EARTH

Epoch: May 7, 2025, 10:54 p.m. UTC

TLE line 0: 0 CZ-6A DEB

TLE line 1: 1 54431U 22151FF 25127.95452825 .00001671 00000-0 10500-2 0 9998

TLE line 2: 2 54431 98.9709 132.9772 0118952 41.5034 319.5090 14.02341289126814

Live tracking on map

Real-time ground track for satellite CZ-6A DEB.

In-orbit conjunctions

A list of the most updated potential collisions computed for object CZ-6A DEB.

Target Orbit TCA Probability of collision Miss distance Type
CZ-6A DEB LEO 2025-05-02 02:14:38 0.0001451256 57.0 (m) DEBRIS
CZ-4B DEB LEO 2024-10-30 12:43:17 0.0001444218 110.0 (m) DEBRIS

Associated space launch

Chinese satellite reported for atmospheric/ocean/environmental/spatial parameter research purposes, details TBD.

CZ-6A DEB was lifted into orbit during the mission ‘Long March 6A | Yunhai 3’, on board a Long March 6A space rocket.

The launch took place on Nov. 11, 2022, 10:52 p.m. from Launch Complex 9A.

For more information about the launch, click the button.

Launch to space Long March 6A | Yunhai 3
Long March 6A | Yunhai 3

Agency: N/A

Status: Launch Successful

Launch date: Nov. 11, 2022, 10:52 p.m. UTC

Rocket: Long March 6A

Launch pad: Launch Complex 9A

Location: Taiyuan Satellite Launch Center, People's Republic of China

...

Latest news about this satellite

There are no fresh news available about this satellite. Check back as we update our databases every day.


Newsletter sign-up

Weekly statistics, charts and insights to help you stay on top of the space industry.